When you browse on this site, cookies collect data to enhance your experience and personalize the content and advertising you see.
Visit our Privacy Policy to learn more. By continuing to use the site, you agree to this use of cookies and data.
  • In Österreich
  • Länderverzeichnis
  • Für 7 Tage
  • Wassertemperatur
  • Wetterkarte
  • News
  • Widgets
  • user-avatar
    Anmelden

    Stündliche Wetter Krasnyy Lug

    Heute, 6 Dezember, Freitag

    Zeit Temperatur Niederschläge Wind Luftdruck Luftfeuchtigkeit
    00:00 -2°C° 0 mm 5 m/S 737 mmHg 89%
    01:00 -2°C° 0 mm 5 m/S 737 mmHg 88%
    02:00 -2°C° 0 mm 4 m/S 737 mmHg 88%
    03:00 -2°C° 0 mm 4 m/S 737 mmHg 87%
    04:00 -3°C° 0 mm 4 m/S 737 mmHg 86%
    05:00 -3°C° 0 mm 4 m/S 736 mmHg 86%
    06:00 -3°C° 0 mm 4 m/S 736 mmHg 86%
    07:00 -4°C° 0 mm 4 m/S 736 mmHg 86%
    08:00 -4°C° 0 mm 4 m/S 735 mmHg 87%
    09:00 -4°C° 0 mm 4 m/S 735 mmHg 85%
    10:00 -4°C° 0 mm 5 m/S 735 mmHg 82%
    11:00 -4°C° 0 mm 5 m/S 734 mmHg 79%
    12:00 -2°C° 0 mm 5 m/S 734 mmHg 78%
    13:00 -2°C° 0 mm 5 m/S 734 mmHg 77%
    14:00 -2°C° 0 mm 6 m/S 733 mmHg 73%
    15:00 -3°C° 0.1 mm 6 m/S 733 mmHg 75%
    16:00 -3°C° 0.1 mm 6 m/S 733 mmHg 76%
    17:00 -3°C° 0.1 mm 6 m/S 733 mmHg 78%
    18:00 -3°C° 0 mm 6 m/S 733 mmHg 77%
    19:00 -2°C° 0 mm 5 m/S 733 mmHg 77%
    20:00 -2°C° 0 mm 5 m/S 733 mmHg 76%
    21:00 -2°C° 0.1 mm 5 m/S 733 mmHg 80%
    22:00 -2°C° 0.1 mm 5 m/S 733 mmHg 85%
    23:00 -2°C° 0.1 mm 5 m/S 733 mmHg 89%

    Morgen, 7 Dezember, Samstag

    Zeit Temperatur Niederschläge Wind Luftdruck Luftfeuchtigkeit
    00:00 -2°C° 0.2 mm 4 m/S 733 mmHg 89%
    01:00 -2°C° 0.2 mm 4 m/S 734 mmHg 89%
    02:00 -2°C° 0.2 mm 4 m/S 734 mmHg 89%
    03:00 -2°C° 0.4 mm 4 m/S 733 mmHg 89%
    04:00 -2°C° 0.4 mm 4 m/S 733 mmHg 90%
    05:00 -2°C° 0.4 mm 4 m/S 733 mmHg 90%
    06:00 -2°C° 0.3 mm 4 m/S 733 mmHg 91%
    07:00 -2°C° 0.3 mm 4 m/S 733 mmHg 91%
    08:00 -2°C° 0.3 mm 4 m/S 733 mmHg 92%
    09:00 -2°C° 0.2 mm 4 m/S 733 mmHg 91%
    10:00 -2°C° 0.2 mm 4 m/S 732 mmHg 89%
    11:00 -2°C° 0.2 mm 4 m/S 732 mmHg 88%
    12:00 -2°C° 0 mm 4 m/S 732 mmHg 86%
    13:00 -2°C° 0 mm 4 m/S 731 mmHg 84%
    14:00 -2°C° 0 mm 5 m/S 731 mmHg 82%
    15:00 -2°C° 0 mm 5 m/S 731 mmHg 81%
    16:00 -2°C° 0 mm 5 m/S 730 mmHg 80%
    17:00 -2°C° 0 mm 5 m/S 730 mmHg 80%
    18:00 -4°C° 0 mm 5 m/S 730 mmHg 81%
    19:00 -4°C° 0 mm 5 m/S 730 mmHg 81%
    20:00 -4°C° 0 mm 5 m/S 729 mmHg 82%
    21:00 -4°C° 0 mm 5 m/S 729 mmHg 85%
    22:00 -2°C° 0 mm 5 m/S 728 mmHg 88%
    23:00 -2°C° 0 mm 5 m/S 727 mmHg 91%

    übermorgen, 8 Dezember, Sonntag

    Zeit Temperatur Niederschläge Wind Luftdruck Luftfeuchtigkeit
    00:00 -2°C° 0.1 mm 6 m/S 727 mmHg 91%
    01:00 -2°C° 0.1 mm 6 m/S 727 mmHg 92%
    02:00 -1°C° 0.1 mm 6 m/S 727 mmHg 92%
    03:00 -1°C° 0.1 mm 6 m/S 727 mmHg 89%
    04:00 0°C° 0.1 mm 5 m/S 727 mmHg 85%
    05:00 0°C° 0.1 mm 5 m/S 726 mmHg 82%
    06:00 0°C° 0 mm 5 m/S 727 mmHg 83%
    07:00 0°C° 0 mm 5 m/S 727 mmHg 85%
    08:00 -2°C° 0 mm 6 m/S 728 mmHg 86%
    09:00 -2°C° 0 mm 6 m/S 728 mmHg 86%
    10:00 0°C° 0 mm 5 m/S 729 mmHg 85%
    11:00 0°C° 0 mm 5 m/S 729 mmHg 85%
    12:00 0°C° 0 mm 5 m/S 730 mmHg 84%
    13:00 -1°C° 0 mm 4 m/S 730 mmHg 84%
    14:00 -1°C° 0 mm 4 m/S 731 mmHg 84%
    15:00 -1°C° 0 mm 4 m/S 731 mmHg 85%
    16:00 -1°C° 0 mm 4 m/S 731 mmHg 87%
    17:00 -2°C° 0 mm 4 m/S 731 mmHg 89%
    18:00 -2°C° 0 mm 4 m/S 732 mmHg 88%
    19:00 -1°C° 0 mm 4 m/S 732 mmHg 88%
    20:00 -1°C° 0 mm 4 m/S 732 mmHg 88%
    21:00 -1°C° 0.2 mm 4 m/S 731 mmHg 91%
    22:00 -1°C° 0.2 mm 5 m/S 731 mmHg 94%
    23:00 -1°C° 0.2 mm 5 m/S 730 mmHg 96%

    9 Dezember, Montag

    Zeit Temperatur Niederschläge Wind Luftdruck Luftfeuchtigkeit
    00:00 0°C° 0.4 mm 5 m/S 730 mmHg 96%
    01:00 0°C° 0.4 mm 5 m/S 730 mmHg 96%
    02:00 +1°C° 0.4 mm 5 m/S 730 mmHg 95%
    03:00 +1°C° 0.1 mm 5 m/S 730 mmHg 94%
    04:00 +1°C° 0.1 mm 5 m/S 729 mmHg 92%
    05:00 +1°C° 0.1 mm 5 m/S 729 mmHg 91%
    06:00 0°C° 0 mm 5 m/S 729 mmHg 91%
    07:00 0°C° 0 mm 5 m/S 729 mmHg 91%
    08:00 0°C° 0 mm 5 m/S 729 mmHg 91%
    09:00 0°C° 0.1 mm 5 m/S 729 mmHg 91%
    10:00 0°C° 0.1 mm 5 m/S 729 mmHg 91%
    11:00 +1°C° 0.1 mm 6 m/S 729 mmHg 92%
    12:00 +1°C° 0 mm 5 m/S 729 mmHg 92%
    13:00 +1°C° 0 mm 5 m/S 729 mmHg 92%
    14:00 +1°C° 0 mm 4 m/S 729 mmHg 92%
    15:00 +1°C° 0 mm 4 m/S 729 mmHg 92%
    16:00 +1°C° 0 mm 4 m/S 729 mmHg 92%
    17:00 +1°C° 0 mm 4 m/S 729 mmHg 93%
    18:00 +1°C° 0.1 mm 4 m/S 730 mmHg 93%
    19:00 +1°C° 0.1 mm 4 m/S 730 mmHg 94%
    20:00 +2°C° 0.1 mm 3 m/S 730 mmHg 94%
    21:00 +2°C° 0.4 mm 3 m/S 730 mmHg 95%
    22:00 +2°C° 0.4 mm 3 m/S 730 mmHg 96%
    23:00 +3°C° 0.4 mm 2 m/S 730 mmHg 97%

    10 Dezember, Dienstag

    Zeit Temperatur Niederschläge Wind Luftdruck Luftfeuchtigkeit
    00:00 +3°C° 0.1 mm 2 m/S 731 mmHg 97%
    01:00 +2°C° 0.1 mm 2 m/S 731 mmHg 97%
    02:00 +2°C° 0.1 mm 2 m/S 732 mmHg 97%
    03:00 +2°C° 0 mm 2 m/S 732 mmHg 97%
    04:00 +2°C° 0 mm 2 m/S 732 mmHg 97%
    05:00 +3°C° 0 mm 1 m/S 733 mmHg 97%
    06:00 +2°C° 0 mm 2 m/S 733 mmHg 97%
    07:00 +2°C° 0 mm 2 m/S 733 mmHg 96%
    08:00 +2°C° 0 mm 2 m/S 734 mmHg 96%
    09:00 +2°C° 0 mm 2 m/S 734 mmHg 95%
    10:00 +3°C° 0 mm 2 m/S 734 mmHg 95%
    11:00 +3°C° 0 mm 2 m/S 734 mmHg 94%
    12:00 +3°C° 0.2 mm 2 m/S 734 mmHg 95%
    13:00 +3°C° 0.2 mm 2 m/S 734 mmHg 96%
    14:00 +3°C° 0.2 mm 2 m/S 734 mmHg 97%
    15:00 +3°C° 0.5 mm 2 m/S 734 mmHg 97%
    16:00 +3°C° 0.5 mm 2 m/S 734 mmHg 98%
    17:00 +3°C° 0.5 mm 2 m/S 734 mmHg 98%
    18:00 +3°C° 0.6 mm 2 m/S 734 mmHg 98%
    19:00 +3°C° 0.6 mm 2 m/S 734 mmHg 98%
    20:00 +3°C° 0.6 mm 2 m/S 734 mmHg 97%
    21:00 +3°C° 0 mm 2 m/S 734 mmHg 96%
    22:00 +3°C° 0 mm 2 m/S 734 mmHg 94%
    23:00 +3°C° 0 mm 2 m/S 734 mmHg 93%

    11 Dezember, Mittwoch

    Zeit Temperatur Niederschläge Wind Luftdruck Luftfeuchtigkeit
    00:00 +2°C° 0 mm 2 m/S 735 mmHg 93%
    01:00 +2°C° 0 mm 2 m/S 735 mmHg 94%
    02:00 +2°C° 0 mm 2 m/S 735 mmHg 95%
    03:00 +1°C° 0.1 mm 3 m/S 735 mmHg 95%
    04:00 +1°C° 0.1 mm 3 m/S 735 mmHg 96%
    05:00 +1°C° 0.1 mm 3 m/S 736 mmHg 96%
    06:00 -1°C° 0.5 mm 4 m/S 736 mmHg 95%
    07:00 -3°C° 0.5 mm 4 m/S 736 mmHg 93%
    08:00 -5°C° 0.5 mm 5 m/S 737 mmHg 92%
    09:00 -4°C° 0.1 mm 4 m/S 737 mmHg 88%
    10:00 -4°C° 0.1 mm 4 m/S 738 mmHg 84%
    11:00 -3°C° 0.1 mm 4 m/S 739 mmHg 80%
    12:00 -4°C° 0 mm 4 m/S 739 mmHg 80%
    13:00 -4°C° 0 mm 4 m/S 740 mmHg 80%
    14:00 -4°C° 0 mm 4 m/S 740 mmHg 80%
    15:00 -4°C° 0 mm 3 m/S 740 mmHg 81%
    16:00 -4°C° 0 mm 3 m/S 741 mmHg 82%
    17:00 -5°C° 0 mm 3 m/S 742 mmHg 82%
    18:00 -5°C° 0 mm 3 m/S 742 mmHg 84%
    19:00 -5°C° 0 mm 3 m/S 742 mmHg 85%
    20:00 -5°C° 0 mm 3 m/S 743 mmHg 87%
    21:00 -5°C° 0 mm 3 m/S 743 mmHg 87%
    22:00 -5°C° 0 mm 3 m/S 743 mmHg 87%
    23:00 -4°C° 0 mm 2 m/S 743 mmHg 87%
    Mehr zeigen